Retour au catalogue

ICEYE-X62

ActifScienceSSO
NORAD 66755·PAYLOAD·🇵🇱 Poland

Lancé Nov 28, 2025 depuis Vandenberg Space Force Base

Loading…

Prochains Passages (prochaines 24 heures)

TLE

FraisSource: Space-Track

Époque: Sep 14, 2026, 04:16 UTC

1 66755U 25276CT  26257.17819815  .00001384  00000-0  87929-4 0  9998
2 66755  97.4124 326.5867 0003891  71.9781 288.1873 15.10428421 43764

Suivez ICEYE-X62 en temps réel avec AllMySat

Download on the App Store